Location: Akinsdale
(53.6273°N, 113.5946°W)
Time: 14:43:56
(UTC+00:00)

Envisat - Visible Passes

Search period start: 09 June 2023 00:00
Search period end: 19 June 2023 00:00
Orbit: 763 x 765 km, 98.2° (Epoch: 08 June)

Date Brightness Start Highest point End Pass type
(mag) Time Alt. Az. Time Alt. Az. Time Alt. Az.
10 Jun 5.8 09:48:52 10° ENE 09:50:08 11° E 09:51:24 10° E visible
12 Jun 5.5 10:11:54 10° NE 10:15:15 17° E 10:18:35 10° SE visible
15 Jun 5.6 10:00:00 10° NE 10:02:37 14° E 10:05:14 10° ESE visible
18 Jun 5.8 09:48:34 10° ENE 09:49:58 11° E 09:51:21 10° E visible
